Location: Capannuccia
(43.7000°N, 11.3000°E)
Time: 09:01:26
(UTC+00:00)

STARLINK-1312 - Pass Details

Date: 07 October 2020
Orbit: 549 x 550 km, 53.0° (Epoch: 23 October)

Event Time Altitude Azimuth Distance (km) Brightness Sun altitude
Exits shadow 03:42:25 45° 261° (W) 759 3.8 -18.3°
Maximum altitude 03:43:33 69° 328° (NNW) 591 3.6 -18.1°
Drops below altitude 10° 03:47:41 10° 52° (NE) 1,825 7.2 -17.4°
Sets 03:49:56 0° 55° (NE) 2,721 8.3 -17.0°
